{"data":{"norad_id":41786,"epoch":"2026-09-20T04:11:03.161760Z","epoch_age_seconds":73045,"freshness":"FRESH","line1":"1 41786U 16059D   26263.17434215  .00000343  00000+0  63857-4 0  9995","line2":"2 41786  97.9802 323.5772 0000683  80.1191 280.0093 14.70968852534733","mean_motion":14.70968852,"eccentricity":6.83e-5,"inclination_deg":97.9802,"raan_deg":323.5772,"arg_perigee_deg":80.1191,"mean_anomaly_deg":280.0093,"bstar":6.3857e-5,"rev_number":53473,"period_min":97.894662965984,"perigee_km":657.49626504466,"apogee_km":658.45739819405,"semimajor_km":7036.1138316194,"source":"CELESTRAK","updated_at":"2026-09-20T09:00:14.156766Z"}}